"Pseudo-MPEC" for P129nyt

Created 2025 Apr 30 2:31:06 UT using Find_Orb

Click here for an explanation of pseudo-MPECs

 
 Astrometry: 
     P129nyt* C2025 04 24.52869915 28 43.584-15 33 07.37   ~4OEl 22.01wXNEOCPF51
     P129nyt  C2025 04 24.53944615 28 42.925-15 32 39.39   ~4OEl 21.59wXNEOCPF51
     P129nyt  C2025 04 24.55022115 28 42.311-15 32 11.42   ~4OEl 21.61wXNEOCPF51
     P129nyt  C2025 04 24.56097915 28 41.662-15 31 43.63   ~4OEl 21.80wXNEOCPF51
     P129nyt  C2025 04 24.61459415 28 38.543-15 29 23.98   ~4OGH 21.97GVNEOCPF51
     P129nyt  C2025 04 24.61523815 28 38.467-15 29 22.39   ~4OGH 21.67GVNEOCPF51
     P129nyt |C2025 04 25.29564015 28 02.230-14 59 46.20   ~4P8H 21.4 GVNEOCP807
     P129nyt |C2025 04 25.30121015 28 01.850-14 59 32.00   ~4P8H 21.3 GVNEOCP807
     P129nyt |C2025 04 25.30679015 28 01.520-14 59 17.40   ~4P8H 21.3 GVNEOCP807
     P129nyt KC2025 04 25.33634415 28 00.412-14 58 16.75   ~4P8V 21.40GVNEOCPV06
     P129nyt KC2025 04 25.33817215 28 00.314-14 58 11.89   ~4P8V 21.62GVNEOCPV06
     P129nyt KC2025 04 25.34000015 28 00.203-14 58 07.07   ~4P8V 21.46GVNEOCPV06
     P129nyt KC2025 04 25.34182915 28 00.080-14 58 02.28   ~4P8V 21.48GVNEOCPV06
     P129nyt KC2025 04 26.33765115 27 04.993-14 14 52.66   ~4Q8V 21.67GVNEOCPV06
     P129nyt KC2025 04 26.33947915 27 04.867-14 14 47.69   ~4Q8V 21.43GVNEOCPV06
     P129nyt KC2025 04 26.34130815 27 04.748-14 14 42.97   ~4Q8V 21.72GVNEOCPV06
     P129nyt KC2025 04 26.34313615 27 04.655-14 14 38.04   ~4Q8V 21.75GVNEOCPV06

Station data:
(807) Cerro Tololo Observatory, La Serena  (S30.169133 W70.805900)  Chile.
   Observer R. Holmes. 0.61-m f/6.5 astrograph + CCD.
(F51) Pan-STARRS 1, Haleakala  (N20.707234 W156.255910)  US/Hawaii.
   Observers J. Bulger, T. Lowe, A. Schultz, M. Willman. Measurers K.
   Chambers, S. Chastel, T. de Boer, L. Denneau, J. Fairlamb, H. Flewelling,
   M. Huber, C.-C. Lin, E. Magnier, Y. Ramanjooloo, R. Wainscoat, R. Weryk.
   1.8-m Ritchey-Chrétien + CCD.
(V06) Catalina Sky Survey-Kuiper  (N32.416871 W110.732550)  US/Arizona.
   Observers T. A. Pruyne, B. M. Africano, E. J. Christensen, G. A. Farneth,
   D. C. Fuls, A. R. Gibbs, A. D. Grauer, H. Gröller, J. A. Johnson, R. A.
   Kowalski, S. M. Larson, G. J. Leonard, D. Rankin, R. L. Seaman, F. C.
   Shelly, K. W. Wierzchoś. 1.55-m reflector + CCD.

Orbital elements:  P129nyt
   Perihelion 2025 Jan 11.55005 +/- 0.574 TT = 13:12:04 (JD 2460687.05005)
Epoch 2025 Apr 26.0 TT = JDT 2460791.5   Earth MOID: 0.5032   Ma: 0.0370
M  45.83481003 +/- 0.9              (J2000 ecliptic)             AutoNEOCP
n   0.43882080 +/- 0.00684          Peri.  302.01165 +/- 0.6
a   1.71505443 +/- 0.0178           Node   218.68118 +/- 0.08
e   0.1655973 +/- 0.00618           Incl.   25.43348 +/- 0.41
P   2.246/820.365d         H 21.38  G  0.15   U  9.4
q 1.43104598 +/- 0.00789    Q 1.99906287 +/- 0.0304
From 17 observations 2025 Apr. 24-26 (43.5 hr); mean residual 0".19
Residuals in arcseconds: 
250424 F51  .10+  .02-    250425 807  .06+  .21+    250425 V06  .01+  .00     
250424 F51  .19-  .08+    250425 807  .59-  .09-    250426 V06  .23+  .15-    
250424 F51  .17+  .07+    250425 807  .51-  .02-    250426 V06  .04+  .06+    
250424 F51  .01-  .08-    250425 V06  .02+  .25-    250426 V06  .05-  .02+    
250424 F51  .29+  .03+    250425 V06  .20+  .13-    250426 V06  .24+  .20+    
250424 F51  .27-  .06-    250425 V06  .19+  .05-    

Ephemerides (geocentric):
Date (UTC) HH   RA             Dec           delta  r     elong  mag " sig PA
---- --------  ------------   ------------  ------ ------ -----  --- --------
2025 04 30 03  15 23 23.841   -11 30 07.38  .55682 1.5540 166.4 21.7 3.39 117
2025 04 30 04  15 23 21.329   -11 28 19.02  .55684 1.5541 166.4 21.7 3.44 117
2025 04 30 05  15 23 18.816   -11 26 30.68  .55686 1.5542 166.5 21.7 3.50 117
2025 04 30 06  15 23 16.301   -11 24 42.35  .55687 1.5543 166.5 21.7 3.55 117
2025 04 30 07  15 23 13.785   -11 22 54.04  .55689 1.5544 166.5 21.7 3.61 116
2025 04 30 08  15 23 11.268   -11 21 05.74  .55691 1.5544 166.6 21.7 3.66 116
2025 04 30 09  15 23 08.750   -11 19 17.46  .55693 1.5545 166.6 21.7 3.72 116
2025 04 30 10  15 23 06.230   -11 17 29.20  .55695 1.5546 166.7 21.7 3.77 116
2025 04 30 11  15 23 03.708   -11 15 40.95  .55697 1.5547 166.7 21.7 3.83 116
2025 04 30 12  15 23 01.186   -11 13 52.71  .55700 1.5548 166.7 21.7 3.88 116
2025 04 30 13  15 22 58.662   -11 12 04.50  .55702 1.5548 166.8 21.7 3.94 116
2025 04 30 14  15 22 56.137   -11 10 16.30  .55704 1.5549 166.8 21.6 4.00 116
2025 04 30 15  15 22 53.611   -11 08 28.12  .55706 1.5550 166.8 21.6 4.05 116
2025 04 30 16  15 22 51.083   -11 06 39.95  .55709 1.5551 166.9 21.6 4.11 116
2025 04 30 17  15 22 48.554   -11 04 51.80  .55711 1.5552 166.9 21.6 4.17 116
2025 04 30 18  15 22 46.024   -11 03 03.67  .55713 1.5553 166.9 21.6 4.23 116
2025 04 30 19  15 22 43.493   -11 01 15.56  .55716 1.5553 167.0 21.6 4.28 116
2025 04 30 20  15 22 40.961   -10 59 27.47  .55718 1.5554 167.0 21.6 4.34 116
2025 04 30 21  15 22 38.427   -10 57 39.40  .55721 1.5555 167.0 21.6 4.40 116
2025 04 30 22  15 22 35.892   -10 55 51.34  .55723 1.5556 167.1 21.6 4.46 116
2025 04 30 23  15 22 33.356   -10 54 03.31  .55726 1.5557 167.1 21.6 4.52 116
2025 05 01 00  15 22 30.819   -10 52 15.29  .55729 1.5558 167.1 21.6 4.58 116
2025 05 01 01  15 22 28.281   -10 50 27.30  .55731 1.5558 167.2 21.6 4.64 116
2025 05 01 02  15 22 25.741   -10 48 39.32  .55734 1.5559 167.2 21.6 4.70 116
2025 05 01 03  15 22 23.201   -10 46 51.37  .55737 1.5560 167.2 21.6 4.76 116
2025 05 01 04  15 22 20.659   -10 45 03.43  .55740 1.5561 167.3 21.6 4.82 116
2025 05 01 05  15 22 18.116   -10 43 15.52  .55743 1.5562 167.3 21.6 4.88 116
2025 05 01 06  15 22 15.573   -10 41 27.63  .55746 1.5563 167.3 21.6 4.94 116
2025 05 01 07  15 22 13.028   -10 39 39.76  .55749 1.5563 167.4 21.6 5.01 116
2025 05 01 08  15 22 10.482   -10 37 51.91  .55752 1.5564 167.4 21.6 5.07 116
2025 05 01 09  15 22 07.935   -10 36 04.09  .55755 1.5565 167.4 21.6 5.13 115
2025 05 01 10  15 22 05.387   -10 34 16.28  .55758 1.5566 167.4 21.6 5.19 115
2025 05 01 11  15 22 02.838   -10 32 28.50  .55761 1.5567 167.5 21.6 5.25 115
2025 05 01 12  15 22 00.287   -10 30 40.74  .55764 1.5568 167.5 21.6 5.32 115
2025 05 01 13  15 21 57.736   -10 28 53.01  .55768 1.5568 167.5 21.6 5.38 115
2025 05 01 14  15 21 55.184   -10 27 05.30  .55771 1.5569 167.6 21.6 5.44 115
2025 05 01 15  15 21 52.631   -10 25 17.61  .55774 1.5570 167.6 21.6 5.51 115
2025 05 01 16  15 21 50.077   -10 23 29.94  .55778 1.5571 167.6 21.6 5.57 115
2025 05 01 17  15 21 47.522   -10 21 42.30  .55781 1.5572 167.7 21.6 5.64 115
2025 05 01 18  15 21 44.966   -10 19 54.69  .55785 1.5572 167.7 21.6 5.70 115
2025 05 01 19  15 21 42.409   -10 18 07.10  .55788 1.5573 167.7 21.6 5.76 115
2025 05 01 20  15 21 39.851   -10 16 19.53  .55792 1.5574 167.7 21.6 5.83 115
2025 05 01 21  15 21 37.292   -10 14 32.00  .55796 1.5575 167.8 21.6 5.89 115
2025 05 01 22  15 21 34.733   -10 12 44.48  .55799 1.5576 167.8 21.6 5.96 115
2025 05 01 23  15 21 32.172   -10 10 56.99  .55803 1.5577 167.8 21.6 6.03 115
2025 05 02 00  15 21 29.611   -10 09 09.53  .55807 1.5577 167.8 21.6 6.09 115
2025 05 02 01  15 21 27.049   -10 07 22.10  .55811 1.5578 167.9 21.6 6.16 115
2025 05 02 02  15 21 24.485   -10 05 34.69  .55814 1.5579 167.9 21.6 6.22 115